This demonstration page uses our WeatherBlox Daily Observations layout. Learn more.

Hourly Observations for June 11, 2019

Temp ( °F °C ) Dew Point ( °F °C ) Humidity (%) Winds ( mph kmh ) Pressure ( in mb ) Visibility ( mi km ) Precip ( " mm )
12:15 am 00:15 Cloudy 64 18 64 18 100 100 WNW 7 11 29.91 1013 10 16.09344 0 0
12:35 am 00:35 Cloudy 64 18 64 18 100 100 NW 8 13 29.91 1013 10 16.09344 0 0
12:55 am 00:55 Cloudy 64 18 64 18 100 100 NW 9 15 29.91 1013 10 16.09344 0 0
1:15 am 01:15 Cloudy 66 19 64 18 94 94 NNW 13 20 29.91 1013 10 16.09344 0 0
1:35 am 01:35 Cloudy 66 19 64 18 94 94 NNW 15 24 29.91 1013 10 16.09344 0 0
1:55 am 01:55 Cloudy 66 19 63 17 88 88 NNW 16 26 29.91 1013 10 16.09344 0 0
2:15 am 02:15 Cloudy 66 19 63 17 88 88 NNW 10 17 29.91 1013 10 16.09344 0 0
2:35 am 02:35 Cloudy 66 19 63 17 88 88 NNW 15 24 29.91 1013 10 16.09344 0 0
2:55 am 02:55 Cloudy 66 19 63 17 88 88 NNW 18 30 29.91 1013 10 16.09344 0 0
3:15 am 03:15 Cloudy 66 19 61 16 83 83 NNW 17 28 29.94 1014 10 16.09344 0 0
3:35 am 03:35 Cloudy 64 18 59 15 83 83 N 20 31 29.94 1014 10 16.09344 0 0
3:55 am 03:55 Cloudy 64 18 59 15 83 83 NNW 20 31 29.94 1014 10 16.09344 0 0
4:15 am 04:15 Cloudy 63 17 57 14 83 83 NNW 17 28 29.97 1015 10 16.09344 0 0
4:35 am 04:35 Cloudy 63 17 55 13 77 77 N 15 24 29.97 1015 10 16.09344 0 0
4:55 am 04:55 Cloudy 63 17 55 13 77 77 N 20 31 30 1016 10 16.09344 0 0
5:15 am 05:15 Cloudy 63 17 55 13 77 77 NNW 17 28 30 1016 10 16.09344 0 0
5:35 am 05:35 Cloudy 63 17 55 13 77 77 N 14 22 30 1016 10 16.09344 0 0
5:55 am 05:55 Mostly Cloudy 63 17 55 13 77 77 NNW 15 24 30 1016 10 16.09344 0 0
6:15 am 06:15 Cloudy 63 17 55 13 77 77 N 18 30 30.03 1017 10 16.09344 0 0
6:35 am 06:35 Cloudy 63 17 52 11 68 68 N 17 28 30.03 1017 10 16.09344 0 0
6:55 am 06:55 Partly Cloudy 61 16 52 11 72 72 NNW 17 28 30.06 1018 10 16.09344 0 0
7:15 am 07:15 Sunny 63 17 52 11 68 68 N 16 26 30.06 1018 10 16.09344 0 0
7:35 am 07:35 Sunny 63 17 50 10 64 64 N 16 26 30.06 1018 10 16.09344 0 0
7:55 am 07:55 Sunny 63 17 50 10 64 64 N 15 24 30.06 1018 10 16.09344 0 0
8:15 am 08:15 Sunny 63 17 50 10 64 64 N 21 33 30.09 1019 10 16.09344 0 0
8:35 am 08:35 Sunny 63 17 50 10 64 64 N 14 22 30.09 1019 10 16.09344 0 0
8:55 am 08:55 Sunny 63 17 50 10 64 64 N 17 28 30.09 1019 10 16.09344 0 0
9:15 am 09:15 Sunny 64 18 50 10 60 60 NNW 18 30 30.09 1019 10 16.09344 0 0
9:35 am 09:35 Sunny 64 18 52 11 64 64 N 16 26 30.09 1019 10 16.09344 0 0
9:55 am 09:55 Sunny 66 19 50 10 56 56 N 16 26 30.09 1019 10 16.09344 0 0
10:15 am 10:15 Sunny 68 20 52 11 56 56 N 16 26 30.09 1019 10 16.09344 0 0
10:35 am 10:35 Sunny 68 20 52 11 56 56 NNW 20 31 30.09 1019 10 16.09344 0 0
10:55 am 10:55 Sunny 70 21 52 11 53 53 N 14 22 30.09 1019 10 16.09344 0 0
11:15 am 11:15 Sunny 70 21 50 10 50 50 N 14 22 30.09 1019 10 16.09344 0 0
11:35 am 11:35 Sunny 72 22 52 11 50 50 NW 18 30 30.09 1019 10 16.09344 0 0
11:55 am 11:55 Sunny 72 22 52 11 50 50 NNW 20 31 30.09 1019 10 16.09344 0 0
12:15 pm 12:15 Sunny 72 22 50 10 47 47 NNW 12 19 30.09 1019 10 16.09344 0 0
12:35 pm 12:35 Sunny 73 23 54 12 50 50 NW 18 30 30.09 1019 10 16.09344 0 0
12:55 pm 12:55 Sunny 73 23 50 10 44 44 N 15 24 30.09 1019 10 16.09344 0 0
1:15 pm 13:15 Sunny 77 25 50 10 39 39 NNE 15 24 30.09 1019 10 16.09344 0 0
1:35 pm 13:35 Sunny 77 25 48 9 36 36 N 14 22 30.09 1019 10 16.09344 0 0
1:55 pm 13:55 Sunny 77 25 46 8 34 34 N 17 28 30.09 1019 10 16.09344 0 0
2:15 pm 14:15 Sunny 77 25 48 9 36 36 N 15 24 30.09 1019 10 16.09344 0 0
2:35 pm 14:35 Sunny 75 24 48 9 39 39 NNW 16 26 30.09 1019 10 16.09344 0 0
2:55 pm 14:55 Sunny 77 25 48 9 36 36 NNE 16 26 30.09 1019 10 16.09344 0 0
3:15 pm 15:15 Sunny 77 25 50 10 39 39 N 12 19 30.09 1019 10 16.09344 0 0
3:35 pm 15:35 Sunny 77 25 50 10 39 39 N 16 26 30.09 1019 10 16.09344 0 0
3:55 pm 15:55 Sunny 77 25 50 10 39 39 NNW 10 17 30.09 1019 10 16.09344 0 0
4:15 pm 16:15 Partly Cloudy 79 26 52 11 39 39 N 9 15 30.09 1019 10 16.09344 0 0
4:35 pm 16:35 Sunny 79 26 50 10 37 37 N 12 19 30.09 1019 10 16.09344 0 0
4:55 pm 16:55 Sunny 77 25 50 10 39 39 NNW 15 24 30.09 1019 10 16.09344 0 0
5:15 pm 17:15 Sunny 79 26 52 11 39 39 NNW 16 26 30.09 1019 10 16.09344 0 0
5:35 pm 17:35 Sunny 77 25 50 10 39 39 N 9 15 30.09 1019 10 16.09344 0 0
5:55 pm 17:55 Sunny 77 25 52 11 42 42 NNW 13 20 30.09 1019 10 16.09344 0 0
6:15 pm 18:15 Sunny 77 25 52 11 42 42 NNW 9 15 30.09 1019 10 16.09344 0 0
6:35 pm 18:35 Sunny 79 26 52 11 39 39 N 10 17 30.09 1019 10 16.09344 0 0
6:55 pm 18:55 Sunny 77 25 50 10 39 39 N 8 13 30.06 1018 10 16.09344 0 0
7:15 pm 19:15 Sunny 77 25 50 10 39 39 N 6 9 30.09 1019 10 16.09344 0 0
7:35 pm 19:35 Sunny 75 24 52 11 44 44 NNW 6 9 30.09 1019 10 16.09344 0 0
7:55 pm 19:55 Sunny 73 23 52 11 47 47 WNW 3 6 30.09 1019 10 16.09344 0 0
8:15 pm 20:15 Sunny 72 22 54 12 53 53 NW 3 6 30.09 1019 10 16.09344 0 0
8:35 pm 20:35 Sunny 70 21 57 14 64 64 Calm 30.09 1019 10 16.09344 0 0
8:55 pm 20:55 Clear 68 20 55 13 64 64 Calm 30.09 1019 10 16.09344 0 0
9:35 pm 21:35 Clear 66 19 55 13 68 68 Calm 30.12 1020 10 16.09344 0 0
9:50 pm 21:50 Clear 66 19 55 13 68 68 Calm 30.12 1020 10 16.09344 0 0
10:15 pm 22:15 Clear 66 19 54 12 64 64 Calm 30.12 1020 10 16.09344 0 0
10:35 pm 22:35 Clear 64 18 54 12 68 68 Calm 30.12 1020 10 16.09344 0 0
10:55 pm 22:55 Clear 64 18 54 12 68 68 Calm 30.12 1020 10 16.09344 0 0
11:15 pm 23:15 Clear 64 18 54 12 68 68 Calm 30.12 1020 10 16.09344 0 0
11:35 pm 23:35 Clear 64 18 54 12 68 68 NNW 3 6 30.12 1020 10 16.09344 0 0
11:55 pm 23:55 Clear 64 18 52 11 64 64 Calm 30.12 1020 10 16.09344 0 0

Powered by AerisWeather